Glasgow, United Kingdom

10:01 AM BST on September 27, 2016 (GMT +0100)
Glasgow

Weather History for EGPF - December, 2012

Change the Weather History Date:

Tuesday, December 11, 2012

  Actual Average Record
Temperature  
Mean Temperature 24 °F -  
Max Temperature 32 °F 45 °F 53 °F (1998)
Min Temperature 17 °F 35 °F 17 °F (2012)
Degree Days  
Heating Degree Days 40    
Moisture  
Dew Point 23 °F    
Average Humidity 94    
Maximum Humidity 100    
Minimum Humidity 80    
Precipitation  
Precipitation 0.00 in - - ()
Sea Level Pressure  
Sea Level Pressure 30.42 in    
Wind  
Wind Speed 1 mph ()    
Max Wind Speed 4 mph    
Max Gust Speed -    
Visibility 4.0 miles    
Events Fog    
Averages and records for this station are not official NWS values.
T = Trace of Precipitation, MM = Missing Value Source: Averaged Metar Reports

Daily Weather History Graph

Daily Weather History Graph

Search for Another Location

Airport or City:

Trip Planner

Search our weather history database for the weather conditions in past years. The results will help you decide how hot, cold, wet, or windy it might be!

Date:

Astronomy

Dec. 11, 2012 Rise Set
Actual Time 8:38 AM GMT 3:43 PM GMT
Civil Twilight 7:51 AM GMT 4:30 PM GMT
Nautical Twilight 7:03 AM GMT 5:19 PM GMT
Astronomical Twilight 6:17 AM GMT 6:04 PM GMT
Moon 6:02 AM GMT (12/11) 2:21 PM GMT (12/11)
Length of Visible Light 8h 38m
Length of Day
7h 05m
Waning Crescent, 5% of the Moon is Illuminated
Dec 11
Waning Crescent
Dec 13
New
Dec 20
First Quarter
Dec 28
Full
Jan 5
Last Quarter

Hourly Weather History & Observations

Time (GMT) Temp. Windchill Dew Point Humidity Pressure Visibility Wind Dir Wind Speed Gust Speed Precip Events Conditions
12:20 AM 24.8 °F - 23.0 °F 93% 30.48 in - Calm Calm - N/A   Clear
12:50 AM 24.8 °F 20.5 °F 23.0 °F 93% 30.48 in - Variable 3.5 mph - N/A   Clear
1:20 AM 21.2 °F - 19.4 °F 93% 30.48 in 6.2 mi SW 2.3 mph - N/A Fog Shallow Fog
1:50 AM 23.0 °F - 21.2 °F 93% 30.48 in 4.3 mi Calm Calm - N/A   Unknown
2:20 AM 21.2 °F - 19.4 °F 93% 30.48 in - Calm Calm - N/A   Haze
2:50 AM 23.0 °F - 21.2 °F 93% 30.51 in 0.2 mi Calm Calm - N/A Fog Light Freezing Fog
3:20 AM 21.2 °F - 19.4 °F 93% 30.51 in 0.1 mi Calm Calm - N/A Fog Light Freezing Fog
3:50 AM 19.4 °F - 17.6 °F 93% 30.48 in 0.2 mi Calm Calm - N/A Fog Light Freezing Fog
4:20 AM 19.4 °F 14.3 °F 17.6 °F 93% 30.48 in 0.2 mi WSW 3.5 mph - N/A Fog Light Freezing Fog
4:50 AM 19.4 °F - 17.6 °F 93% 30.48 in 1.6 mi Calm Calm - N/A   Haze
5:20 AM 19.4 °F - 17.6 °F 93% 30.48 in 0.6 mi Calm Calm - N/A Fog Light Freezing Fog
5:50 AM 17.6 °F - 15.8 °F 93% 30.48 in 1.2 mi WSW 2.3 mph - N/A   Haze
6:20 AM 19.4 °F - 17.6 °F 93% 30.48 in 1.2 mi Calm Calm - N/A   Haze
6:50 AM 21.2 °F - 19.4 °F 93% 30.48 in 3.1 mi Calm Calm - N/A   Haze
7:20 AM 21.2 °F - 19.4 °F 93% 30.48 in 3.1 mi Calm Calm - N/A   Haze
7:50 AM 21.2 °F - 19.4 °F 93% 30.48 in 3.1 mi Calm Calm - N/A   Haze
8:20 AM 19.4 °F - 17.6 °F 93% 30.48 in 2.5 mi Calm Calm - N/A   Mist
8:50 AM 19.4 °F - 17.6 °F 93% 30.48 in 5.6 mi Calm Calm - N/A   Mist
9:20 AM 21.2 °F - 19.4 °F 93% 30.48 in 5.0 mi Calm Calm - N/A   Partly Cloudy
9:50 AM 23.0 °F - 21.2 °F 93% 30.48 in 6.2 mi Calm Calm - N/A   Partly Cloudy
10:20 AM 24.8 °F - 23.0 °F 93% 30.48 in 5.6 mi Calm Calm - N/A   Unknown
10:50 AM 24.8 °F - 23.0 °F 93% 30.48 in 5.0 mi WSW 2.3 mph - N/A   Unknown
11:20 AM 26.6 °F - 24.8 °F 93% 30.48 in 5.6 mi Calm Calm - N/A   Unknown
11:50 AM 26.6 °F - 26.6 °F 100% 30.45 in - Calm Calm - N/A   Clear
12:20 PM 26.6 °F - 26.6 °F 100% 30.45 in - Calm Calm - N/A   Clear
12:50 PM 30.2 °F - 30.2 °F 100% 30.45 in - Calm Calm - N/A   Clear
1:20 PM 30.2 °F - 28.4 °F 93% 30.42 in - Calm Calm - N/A   Clear
1:50 PM 30.2 °F - 30.2 °F 100% 30.42 in - Calm Calm - N/A   Clear
2:20 PM 32.0 °F - 28.4 °F 87% 30.42 in - Calm Calm - N/A   Clear
2:50 PM 32.0 °F - 26.6 °F 80% 30.39 in - Calm Calm - N/A   Clear
3:20 PM 30.2 °F - 26.6 °F 86% 30.39 in - Calm Calm - N/A   Clear
3:50 PM 26.6 °F - 24.8 °F 93% 30.39 in - NW 2.3 mph - N/A   Clear
4:20 PM 24.8 °F - 23.0 °F 93% 30.39 in 6.2 mi West 2.3 mph - N/A Fog Unknown
4:50 PM 23.0 °F - 21.2 °F 93% 30.39 in 6.2 mi Calm Calm - N/A Fog Unknown
5:20 PM 24.8 °F - 23.0 °F 93% 30.36 in 6.2 mi WSW 2.3 mph - N/A Fog Shallow Fog
5:50 PM 23.0 °F - 23.0 °F 100% 30.36 in 3.7 mi West 2.3 mph - N/A Fog Fog
6:20 PM 21.2 °F - 21.2 °F 100% 30.36 in 3.7 mi Calm Calm - N/A Fog Shallow Fog
6:50 PM 23.0 °F - 23.0 °F 100% 30.36 in 4.3 mi Calm Calm - N/A Fog Shallow Fog
7:20 PM 23.0 °F - 21.2 °F 93% 30.33 in 5.6 mi WSW 2.3 mph - N/A   Mostly Cloudy
7:50 PM 24.8 °F - 23.0 °F 93% 30.33 in 6.2 mi West 2.3 mph - N/A   Mostly Cloudy
8:20 PM 26.6 °F - 24.8 °F 93% 30.33 in 5.6 mi Calm Calm - N/A   Mostly Cloudy
8:50 PM 24.8 °F - 24.8 °F 100% 30.33 in 5.6 mi Calm Calm - N/A   Mostly Cloudy
9:20 PM 24.8 °F 20.5 °F 23.0 °F 93% 30.30 in 5.6 mi SW 3.5 mph - N/A   Mostly Cloudy
9:50 PM 24.8 °F - 24.8 °F 100% 30.30 in 5.0 mi NNW 2.3 mph - N/A   Mostly Cloudy
10:20 PM 26.6 °F - 24.8 °F 93% 30.30 in 4.3 mi Calm Calm - N/A   Mostly Cloudy
10:50 PM 26.6 °F - 26.6 °F 100% 30.30 in 4.3 mi Calm Calm - N/A   Mostly Cloudy
11:20 PM 28.4 °F - 26.6 °F 93% 30.27 in 5.0 mi Calm Calm - N/A   Mostly Cloudy
11:50 PM 28.4 °F - 26.6 °F 93% 30.27 in 5.0 mi Variable 2.3 mph - N/A   Mostly Cloudy